[[{"header":{"parameterUnit":"m.s-1","parameterCategory":1,"la1":30.2991,"la2":30.254,"lo1":-89.0895,"lo2":-89.0444,"dy":0.0017,"dx":0.0017,"nx":28,"ny":28,"refTime":"2025-05-27T03:00:00:Z","depth":0,"parameterNumber":2,"parameterNumberName":"U-component_of_WINDS"},"data":[0,0,0,0,0,0,0,0,0,0,0,0,0,0,0,0,0,0,0,0,0,0,0,0,0,0,0,0,0,0,0,0,0,0,0,0,0,0,0,0,0,0,0,0,0,0,0,0,0,0,0,0,0,0,0,0,0,0,0.1185,0.1187,0,0.1299,0.13,0.1301,0.1359,0.1359,0.1359,0.1359,0.1479,0.1482,0.1485,0,0,0,0,0,0,0,0,0,0,0,0,0,0.1022,0.1025,0.1185,0.1187,0.1188,0.1298,0.13,0.1302,0.1359,0.1359,0.1359,0.1359,0.1478,0.1481,0.1485,0,0,0,0,0,0,0,0,0,0,0,0,0,0.111,0.1026,0.1185,0.123,0.1235,0.1298,0.13,0.1302,0.1359,0.1359,0.1359,0.1359,0.1476,0.1481,0.1486,0.1514,0,0,0.15,0.1502,0,0,0,0,0,0,0,0,0.1105,0.1116,0.1222,0.1227,0.1233,0.1315,0.1287,0.1373,0.1359,0.1312,0.1359,0.1359,0.1424,0.1433,0.1455,0.152,0.1525,0.1501,0.1503,0.1505,0.1507,0,0,0,0,0,0,0,0.1099,0.1112,0.123,0.1223,0.123,0.1246,0.1258,0.1303,0.1367,0.1316,0.132,0.1333,0.1427,0.145,0.1458,0.1526,0.15,0.1505,0.1508,0.1509,0.1621,0.1622,0,0,0,0,0,0,0.1085,0.1106,0.1227,0.1234,0.1168,0.1249,0.1263,0.1288,0.1366,0.1378,0.1333,0.1335,0.1442,0.1452,0.1462,0.1501,0.1505,0.151,0.1513,0.1621,0.1621,0.1622,0,0,0,0,0,0,0.1081,0.1095,0.1222,0.1171,0.1188,0.1251,0.128,0.1291,0.1313,0.1379,0.1391,0.1344,0.1442,0.1456,0.1501,0.1506,0.1512,0.1516,0.1621,0.1621,0.1622,0.1578,0,0,0,0,0,0,0.1076,0.1094,0.1104,0.1171,0.1191,0.1257,0.128,0.1293,0.1321,0.1325,0.1392,0.1404,0.1443,0.1493,0.1505,0.1513,0.152,0.1621,0.1621,0.1621,0.1579,0.1577,0.1574,0,0,0,0,0,0.107,0.1088,0.1104,0.1118,0.1205,0.1257,0.1269,0.1313,0.1321,0.1333,0.1375,0.1402,0.1503,0.1497,0.1511,0.152,0.1621,0.1621,0.1621,0.158,0.1577,0.1575,0,0,0,0,0,0,0.1021,0.1097,0.1116,0.1156,0.1199,0.1267,0.1283,0.1308,0.1352,0.1354,0.1408,0.1423,0.1463,0.1496,0.1488,0.1552,0.1565,0.1568,0.1529,0.1526,0.1524,0.1515,0.1524,0,0,0,0,0,0.1014,0.1049,0.1115,0.1143,0.1164,0.1219,0.1244,0.1274,0.1322,0.1341,0.1387,0.1433,0.1476,0.1503,0.1546,0.1584,0.1601,0.1598,0.1595,0.1593,0.1595,0.1619,0.1618,0.1623,0.1623,0.1623,0,0,0.1001,0.1047,0.1066,0.1134,0.1172,0.1208,0.1235,0.1272,0.1299,0.1347,0.1392,0.1427,0.1483,0.1525,0.1546,0.1554,0.1598,0.1593,0.1591,0.1595,0.1619,0.1619,0.1618,0.1623,0.1623,0.1623,0,0,0.0996,0.1034,0.1062,0.1099,0.1155,0.1192,0.1199,0.1263,0.1288,0.1333,0.137,0.1405,0.1477,0.1515,0.1544,0.1555,0.1581,0.1567,0.1555,0.1577,0.1577,0.1577,0.1581,0.1582,0.1569,0.1569,0.1569,0,0.0974,0.1028,0.1074,0.1109,0.1138,0.1182,0.1212,0.1246,0.1313,0.1333,0.1341,0.1433,0.1474,0.1525,0.1528,0.155,0.156,0.156,0.1573,0.1574,0.1574,0.1579,0.158,0.1567,0.1567,0.1567,0.1568,0,0.0998,0.1035,0.1051,0.1114,0.1146,0.1178,0.1229,0.1256,0.1283,0.132,0.1367,0.1417,0.1471,0.1486,0.1514,0.1542,0.1545,0.1562,0.1576,0.1571,0.1577,0.1579,0.1564,0.1565,0.1565,0.1566,0,0,0.0964,0.1052,0.1057,0.1087,0.1152,0.1183,0.1218,0.1269,0.1291,0.1337,0.1368,0.1428,0.1444,0.1477,0.151,0.153,0.1535,0.1545,0.1547,0.1542,0.1571,0.1558,0.1559,0.1553,0.1554,0.1554,0.1566,0,0.0969,0.1031,0.1074,0.112,0.1156,0.1199,0.123,0.1274,0.1309,0.1346,0.1385,0.1427,0.1445,0.1466,0.1487,0.153,0.1542,0.153,0.1584,0.1586,0.1569,0.1562,0.1548,0.1557,0.1569,0.1569,0.157,0,0.0982,0.1025,0.1075,0.1137,0.1154,0.118,0.1231,0.1265,0.1317,0.1341,0.1378,0.1411,0.1451,0.1462,0.1518,0.1509,0.1534,0.1559,0.156,0.1567,0.1577,0.1569,0.1561,0.1562,0.1573,0.1573,0.1573,0,0.0953,0.1023,0.1063,0.1086,0.116,0.1177,0.1209,0.1261,0.1289,0.1335,0.1354,0.1404,0.1431,0.147,0.1517,0.152,0.1569,0.1583,0.1591,0.159,0.16,0.1599,0.1595,0.1615,0.1615,0.1615,0.1615,0,0.0953,0.0982,0.105,0.1074,0.1109,0.1158,0.1191,0.1226,0.1272,0.1305,0.1346,0.1376,0.1435,0.1473,0.151,0.1552,0.1564,0.1586,0.1595,0.1582,0.158,0.16,0.16,0.1616,0.1616,0.1615,0.1615,0,0.0926,0.0973,0.1018,0.1084,0.1101,0.1124,0.1181,0.1207,0.1244,0.1285,0.1298,0.1357,0.1404,0.1454,0.1518,0.1543,0.1584,0.1597,0.1566,0.1571,0.1577,0.1576,0.1587,0.1591,0.1607,0.1607,0.1607,0,0.0923,0.0946,0.1014,0.1039,0.1069,0.1108,0.1137,0.1187,0.1216,0.1277,0.1296,0.1346,0.1388,0.1461,0.1511,0.1561,0.1576,0.1576,0.1584,0.157,0.1577,0.1575,0.1578,0.1574,0.1573,0.1573,0.1573,0,0.0913,0.0935,0.0975,0.1024,0.1057,0.1098,0.1141,0.1159,0.1218,0.1249,0.1296,0.1329,0.1394,0.1444,0.15,0.1534,0.1564,0.157,0.1575,0.1562,0.1543,0.1554,0.156,0.157,0.157,0.157,0.157,0.1571,0.0899,0.0921,0.0973,0.1017,0.1054,0.1093,0.112,0.1161,0.1201,0.1257,0.1285,0.1333,0.1386,0.1463,0.1497,0.1537,0.1545,0.1552,0.1554,0.1555,0.1552,0.1536,0.1547,0.1547,0.1547,0.1547,0.1547,0,0.0891,0.0926,0.0966,0.1024,0.1058,0.1082,0.1131,0.1159,0.12,0.1246,0.1286,0.1342,0.139,0.1444,0.1496,0.1517,0.1532,0.1529,0.1528,0.1536,0.154,0.1531,0.1516,0.1516,0.1516,0.1516,0.1516,0.1516,0.0891,0.0931,0.0959,0.1019,0.1055,0.1101,0.1127,0.1164,0.1201,0.126,0.13,0.1334,0.1384,0.144,0.1486,0.1501,0.1518,0.1511,0.153,0.1533,0.1536,0.1538,0.153,0.1515,0.1515,0.1523,0.1523,0.1523]},{"header":{"parameterUnit":"m.s-1","parameterCategory":1,"la1":30.2991,"la2":30.254,"lo1":-89.0895,"lo2":-89.0444,"dy":0.0017,"dx":0.0017,"nx":28,"ny":28,"refTime":"2025-05-27T03:00:00:Z","depth":0,"parameterNumber":3,"parameterNumberName":"V-component_of_WINDS"},"data":[0,0,0,0,0,0,0,0,0,0,0,0,0,0,0,0,0,0,0,0,0,0,0,0,0,0,0,0,0,0,0,0,0,0,0,0,0,0,0,0,0,0,0,0,0,0,0,0,0,0,0,0,0,0,0,0,0,0,0.1391,0.1391,0,0.1433,0.1434,0.1434,0.1507,0.1508,0.151,0.1511,0.1552,0.1552,0.1552,0,0,0,0,0,0,0,0,0,0,0,0,0,0.1367,0.1367,0.1391,0.1391,0.1392,0.1433,0.1434,0.1434,0.1507,0.1509,0.151,0.1512,0.1552,0.1552,0.1552,0,0,0,0,0,0,0,0,0,0,0,0,0,0.139,0.1367,0.139,0.1433,0.1437,0.1433,0.1434,0.1435,0.1506,0.1509,0.1511,0.1513,0.1552,0.1552,0.1551,0.1509,0,0,0.1551,0.155,0,0,0,0,0,0,0,0,0.1389,0.1391,0.1426,0.143,0.1435,0.1467,0.1441,0.1459,0.1506,0.148,0.1511,0.1514,0.1522,0.1524,0.1528,0.1511,0.1512,0.1551,0.155,0.155,0.155,0,0,0,0,0,0,0,0.1387,0.139,0.1407,0.1426,0.1432,0.1448,0.1454,0.1444,0.1489,0.1482,0.1488,0.1492,0.1525,0.1528,0.1529,0.1513,0.1551,0.155,0.155,0.155,0.1459,0.1457,0,0,0,0,0,0,0.138,0.1388,0.1406,0.1409,0.1416,0.1447,0.1453,0.1455,0.1489,0.1496,0.149,0.1495,0.1527,0.1529,0.1531,0.1481,0.155,0.155,0.155,0.1462,0.1459,0.1456,0,0,0,0,0,0,0.1379,0.1381,0.1404,0.14,0.1404,0.1445,0.1446,0.1454,0.1458,0.1495,0.1503,0.1486,0.1529,0.1531,0.1513,0.1483,0.155,0.155,0.1464,0.1461,0.1458,0.1381,0,0,0,0,0,0,0.1378,0.138,0.1366,0.1399,0.1404,0.1387,0.1444,0.1454,0.1457,0.1464,0.1493,0.1499,0.1531,0.1513,0.1513,0.1484,0.1549,0.1467,0.1463,0.1459,0.1386,0.1376,0.1366,0,0,0,0,0,0.1377,0.1342,0.1364,0.1366,0.1387,0.1385,0.1388,0.1426,0.1455,0.1439,0.1463,0.1499,0.1487,0.1511,0.1511,0.1481,0.1469,0.1464,0.1459,0.1391,0.1378,0.1366,0,0,0,0,0,0,0.1304,0.1348,0.1373,0.1348,0.1362,0.1398,0.138,0.1411,0.1417,0.1423,0.1468,0.1474,0.1449,0.1464,0.149,0.144,0.1483,0.1478,0.1431,0.1419,0.1409,0.1405,0.1549,0,0,0,0,0,0.1285,0.1282,0.1319,0.1294,0.13,0.1338,0.1339,0.1366,0.1383,0.1389,0.1412,0.1425,0.1424,0.1423,0.1424,0.1389,0.1395,0.1369,0.1359,0.135,0.1345,0.1324,0.1312,0.144,0.144,0.144,0,0,0.1246,0.1269,0.1264,0.128,0.1294,0.1287,0.1343,0.1334,0.1329,0.1388,0.1371,0.1388,0.1406,0.1378,0.1367,0.139,0.1311,0.1344,0.1337,0.1336,0.1318,0.1305,0.1295,0.1436,0.1437,0.1438,0,0,0.1171,0.1189,0.1169,0.1181,0.1203,0.1228,0.1223,0.1253,0.1266,0.1251,0.1294,0.1288,0.1286,0.1296,0.1301,0.1226,0.1258,0.1226,0.1172,0.1152,0.1142,0.1133,0.1104,0.1093,0.122,0.122,0.122,0,0.1119,0.1112,0.1154,0.1142,0.1146,0.1199,0.1177,0.1187,0.1207,0.1208,0.1233,0.123,0.1246,0.122,0.1202,0.1205,0.1198,0.1222,0.114,0.1132,0.1124,0.1097,0.1086,0.1216,0.1216,0.1217,0.1217,0,0.1046,0.104,0.1021,0.1039,0.1041,0.1024,0.1061,0.1058,0.1085,0.1107,0.1088,0.1109,0.1115,0.1111,0.1137,0.1087,0.11,0.1132,0.1176,0.1107,0.1082,0.1072,0.121,0.1211,0.1212,0.1214,0,0,0.0927,0.0966,0.0958,0.0966,0.0992,0.0988,0.0972,0.0977,0.0973,0.0984,0.097,0.0966,0.0995,0.1,0.1028,0.101,0.0946,0.1044,0.1045,0.1023,0.089,0.0865,0.0852,0.0968,0.0966,0.0965,0.0888,0,0.0855,0.0832,0.0867,0.0835,0.0828,0.0877,0.0863,0.0876,0.0896,0.0892,0.0913,0.0909,0.0948,0.0951,0.0936,0.0957,0.092,0.0964,0.0954,0.0953,0.0946,0.084,0.0814,0.074,0.0879,0.0877,0.0876,0,0.0769,0.0776,0.0743,0.0768,0.0767,0.0754,0.076,0.0757,0.0772,0.0787,0.0791,0.0824,0.0808,0.0851,0.0828,0.0857,0.0855,0.0864,0.0862,0.0862,0.0909,0.0834,0.0718,0.0706,0.0862,0.0863,0.0864,0,0.0682,0.0683,0.0663,0.0668,0.0698,0.0687,0.0699,0.0716,0.0716,0.0722,0.0722,0.0725,0.0726,0.0727,0.0758,0.0787,0.073,0.0777,0.074,0.0739,0.0725,0.0726,0.0605,0.0726,0.0727,0.0727,0.0727,0,0.0598,0.0575,0.0624,0.0611,0.0586,0.0626,0.06,0.0616,0.0631,0.062,0.0663,0.0652,0.0695,0.0688,0.0712,0.0688,0.0689,0.0699,0.0705,0.0694,0.0693,0.0693,0.0698,0.0724,0.0725,0.0725,0.0726,0,0.0497,0.0529,0.0509,0.0539,0.0546,0.0525,0.055,0.0538,0.056,0.0546,0.0545,0.0579,0.0572,0.0604,0.0604,0.062,0.0582,0.0599,0.0577,0.0582,0.0543,0.0545,0.0417,0.0401,0.0534,0.0533,0.0531,0,0.044,0.0423,0.0451,0.0447,0.0457,0.0451,0.0451,0.0489,0.0487,0.0501,0.0487,0.0485,0.0484,0.0472,0.0495,0.0494,0.0509,0.0464,0.0509,0.0498,0.0506,0.0506,0.0503,0.0454,0.0453,0.0451,0.045,0,0.0335,0.0351,0.035,0.0354,0.0353,0.0357,0.0365,0.0359,0.04,0.0396,0.039,0.039,0.0388,0.0384,0.0388,0.0398,0.043,0.0436,0.0427,0.0415,0.0402,0.0406,0.055,0.0438,0.044,0.044,0.0441,0.0442,0.0253,0.0239,0.0256,0.0253,0.0262,0.0267,0.0257,0.0277,0.0273,0.0276,0.0298,0.0287,0.03,0.0308,0.0315,0.0306,0.0327,0.0315,0.0312,0.0308,0.03,0.0405,0.0307,0.0308,0.0308,0.0308,0.0309,0,0.0148,0.0161,0.0158,0.0166,0.0163,0.0194,0.0203,0.0198,0.0188,0.0198,0.0197,0.0188,0.0184,0.0206,0.0205,0.0193,0.0207,0.0191,0.0191,0.0193,0.0282,0.0289,0.0179,0.0179,0.0179,0.0179,0.0179,0.0179,0.0093,0.0071,0.0089,0.0071,0.0084,0.0074,0.0076,0.008,0.0088,0.0077,0.0074,0.0089,0.0103,0.0102,0.0099,0.0105,0.0102,0.008,0.0091,0.0174,0.0187,0.0199,0.0205,0.0079,0.0079,0.0002,0.0001,0.0001]}]]